User: anonymous   Login
Location: Drayton Valley
(53.2170°N, 114.9830°W)
Time: 08:47:11
(UTC-06:00)
Language:

MOZ.5/SAFIR/RUBIN 5/SL-8 - Orbit

View from above orbital plane
View from above orbital plane
View from above satellite
View from above satellite

Ground track
Ground track

The orbit data is extracted from the following two-line orbital elements,

1 28898U 05043G   17115.90287911 +.00000069 +00000-0 +23572-4 0  9997
2 28898 097.9186 267.9452 0019595 356.4503 003.6555 14.60174557235573
Epoch (UTC): 25 April 2017 21:40:08
Eccentricity: 0.0019595
inclination: 97.9186°
perigee height: 679 km
apogee height: 706 km
right ascension of ascending node: 267.9452°
argument of perigee: 356.4503°
revolutions per day: 14.60174557
mean anomaly at epoch: 3.6555°
orbit number at epoch: 23557

The dashed part of the orbit path shows where the satellite is in the earth's shadow,  

DLR